965  
ASUS43 KOAX 241510  
RWRNE  
 
WEATHER ROUNDUP FOR NEBRASKA  
NATIONAL WEATHER SERVICE OMAHA NE  
1000 AM CDT SUN MAR 24 2019  
 
NOTES: SATELLITE DATA IS BEING USED TO AUGMENT CLOUD COVER ABOVE  
12000 FEET.  
"FAIR" INDICATES FEW OR NO CLOUDS BELOW 12,000 FEET WITH NO  
SIGNIFICANT WEATHER AND/OR S TO VISIBILITY
.  
 
 
NEZ001>004-019>022-054>056-241600-  
NEBRASKA PANHANDLE  
 
CITY SKY/WX TMP DP RH WIND PRES REMARKS
 
SCOTTSBLUFF LGT RAIN 40 40 100 CALM 30.07R VSB 1/2  
ALLIANCE CLOUDY 34 34 100 SE3 30.08  
CHADRON CLOUDY 37 36 96 N3 30.09R FOG  
GORDON FOG 37 36 97 CALM 30.09R VSB 1/4  
KIMBALL PTSUNNY 40 38 93 NW3 30.07R  
SIDNEY CLOUDY 41 39 93 CALM 30.08R  

 
 
NEZ057>060-069>072-079>082-241600-  
SOUTHWEST NEBRASKA  
 
CITY SKY/WX TMP DP RH WIND PRES REMARKS
 
NORTH PLATTE CLOUDY 46 39 76 NE7 30.07R  
IMPERIAL CLOUDY 43 38 82 NW7 30.08R  
LEXINGTON CLOUDY 43 39 86 N9 30.06R  
MCCOOK CLOUDY 44 40 85 NW7 30.08R  
OGALLALA CLOUDY 42 41 94 NW5 30.09R  

 
 
NEZ005>010-023>029-035>040-094-241600-  
NORTH CENTRAL NEBRASKA  
 
CITY SKY/WX TMP DP RH WIND PRES REMARKS
 
VALENTINE CLOUDY 37 34 89 NW3 30.11R FOG  
AINSWORTH CLOUDY 36 36 100 N9 30.10R FOG WCI 29  
BROKEN BOW CLOUDY 42 39 89 N15 30.05R  
O'NEILL PTSUNNY 40 39 95 N9 30.07R WCI 35  
ORD CLOUDY 42 40 92 NW8 30.04R FOG  
THEDFORD CLOUDY 41 39 93 N7 30.08R  

 
 
NEZ041-046>049-061>064-073>077-083>087-241600-  
SOUTH CENTRAL NEBRASKA  
 
CITY SKY/WX TMP DP RH WIND PRES REMARKS
 
GRAND ISLAND CLOUDY 43 41 93 N14 30.02R FOG  
AURORA CLOUDY 42 42 100 N13 30.00R  
HASTINGS CLOUDY 44 42 93 N15G24 30.01R FOG  
HEBRON CLOUDY 46 44 95 NW10G20 29.98R FOG  
HOLDREGE CLOUDY 41 41 99 N12 30.05R FOG  
KEARNEY CLOUDY 42 40 92 N15 30.05  
YORK CLOUDY 43 43 100 N9 29.99R  

 
 
NEZ011>018-030>034-042>045-241600-  
NORTHEAST NEBRASKA  
 
CITY SKY/WX TMP DP RH WIND PRES REMARKS
 
NORFOLK CLOUDY N/A N/A N/A N8 30.01R HAZE  
ALBION CLOUDY 42 41 95 N10 30.03R FOG  
BLAIR DRZL/FOG 45 45 97 N10 29.96R VSB 1/4  
COLUMBUS LGT RAIN 43 41 93 N15 30.00R  
FREMONT LGT RAIN 45 44 97 N6 29.99R  
TEKAMAH LGT RAIN 43 42 97 N12 29.99R FOG  
WAYNE CLOUDY 41 37 84 N10 30.03S FOG  

 
 
NEZ050>053-065>068-078-088>093-241600-  
SOUTHEAST NEBRASKA  
 
CITY SKY/WX TMP DP RH WIND PRES REMARKS
 
LINCOLN CLOUDY 47 46 97 N16 29.96R FOG  
OMAHA EPPLEY CLOUDY 48 45 89 N8 29.96R FOG  
BEATRICE CLOUDY 50 48 93 W9 29.93S  
FALLS CITY CLOUDY 48 44 86 W8 29.93R  
NEBRASKA CITY LGT RAIN 48 48 99 E5 29.93S  
PLATTSMOUTH LGT RAIN 48 47 97 NE5 29.94S  

 
 
NEZ044-045-051>053-067-241600-  
OMAHA AREA  
 
CITY SKY/WX TMP DP RH WIND PRES REMARKS
 
OMAHA EPPLEY CLOUDY 48 45 89 N8 29.96R FOG  
BLAIR DRZL/FOG 45 45 97 N10 29.96R VSB 1/4  
FREMONT LGT RAIN 45 44 97 N6 29.99R  
MILLARD CLOUDY 49 48 93 CALM 29.96R FOG  
OFFUTT AFB CLOUDY 48 45 87 NE5 29.95R  
PLATTSMOUTH LGT RAIN 48 47 97 NE5 29.94S  
WAHOO FAIR 45 45 100 N12 29.97R  

 
 
 
CLICK HERE TO GO TO PREVIOUS BULLETINS.

The Nexlab NE Page Main Text Page